Location: Savignano sul Rubicone
(44.0950°N, 12.4090°E)
Time: 07:35:28
(UTC+02:00)

N. Korean satellite - Visible Passes

Search period start: 23 October 2019 00:00
Search period end: 01 November 2019 23:00
Orbit: 455 x 508 km, 97.2° (Epoch: 22 October)

Date Brightness Start Highest point End Pass type
(mag) Time Alt. Az. Time Alt. Az. Time Alt. Az.
23 Oct 6.8 07:06:27 10° NNE 07:10:06 80° ESE 07:13:47 10° S visible
23 Oct 10.0 19:18:18 10° SW 19:20:15 14° W 19:22:13 10° WNW visible
24 Oct 8.4 06:41:20 10° NNE 06:44:45 37° E 06:48:11 10° SSE visible
24 Oct 8.9 18:51:45 10° SSW 18:54:46 28° W 18:57:50 10° NW visible
25 Oct 9.7 06:16:38 10° NE 06:19:19 19° E 06:22:00 10° SE visible
27 Oct 7.2 05:58:35 10° NNE 06:02:14 63° E 06:05:55 10° S visible
27 Oct 9.8 18:09:53 10° SW 18:12:17 18° W 18:14:44 10° NW visible
28 Oct 8.8 05:33:34 10° NNE 05:36:52 30° E 05:40:10 10° SSE visible
28 Oct 8.4 17:43:37 10° SSW 17:46:49 36° W 17:50:05 10° NNW visible
29 Oct 10.0 05:09:04 10° NE 05:11:23 16° E 05:13:42 10° SE visible
30 Oct 10.3 18:28:47 10° WSW 18:29:51 11° W 18:30:54 10° WNW visible
31 Oct 7.7 05:50:43 10° NNE 05:54:21 50° E 05:57:57 10° S visible
31 Oct 9.4 18:01:32 10° SSW 18:04:18 22° W 18:07:07 10° NW visible
01 Nov 9.2 05:25:48 10° NE 05:28:54 25° E 05:32:01 10° SSE visible
01 Nov 7.8 17:35:30 10° S 17:38:50 46° W 17:42:16 10° NNW visible
